sat.trackr.live / text

‹ back to catalog

STARLINK-34144

NORAD 63958 · 2025-099G

PAYLOAD ACTIVE UNKNOWN

§ Identity

Operator
Country
US
Launch date
2025-05-13
Launch site
AFETR
Launch vehicle
Mass (kg)
RCS (m²)

Purposes: comms

External: N2YO · Heavens-Above · Gunter

§ Orbital elements

Epoch: 2026-05-25T04:27:48.417120Z

Period
94.27 min
Inclination
42.9956°
Eccentricity
0.0000669
Mean motion
15.27543162 rev/d
Perigee alt
482.7 km
Apogee alt
483.6 km
Semi-major
6,861.3 km
B*
6.5577e-4
RAAN
104.3628°
Arg perigee
257.4917°
Mean anomaly
102.5860°
Rev number
5,903

§ Raw data

STARLINK-341441 63958U 25099G   26145.18597705  .00017807  00000+0  65577-3 0  99912 63958  42.9956 104.3628 0000669 257.4917 102.5860 15.27543162 59033

JSON: /api/v1/satellites/63958 · /tle

For live sub-satellite position, see the globe view (requires WebGL).

§ Visibility from observer

Set your observer location to see the next 7 days of passes ≥ 10°. The values pass through the URL so the page stays shareable.

No JS? Fill the form by hand. The geolocation button needs JavaScript.